Home > Weather > Paradise > Past weeks

Flag for Canada Past Weather in Paradise, Newfoundland and Labrador, Canada — Yesterday and Last 2 Weeks

Now
52 °F

Partly cloudy.


Feels Like: 49 °F
Forecast: 51 / 70 °F
Wind: 7 mph from Southwest

Location: St. John's

Current Time: Aug 29, 2016 at 6:51:03 AM

Latest Report: Aug 29, 2016 at 6:30 AM


Visibility: 15 mi

Pressure: 30.14 "Hg

Humidity: 82%

Dew Point: 46 °F

Location of ParadiseLocation

Past Weather in Paradise — Graph

°F

Paradise Temperature Yesterday

Maximum temperature yesterday: 64 °F (at 2:30 PM)
Minimum temperature yesterday: 50 °F (at 2:30 AM)
Average temperature yesterday: 55 °F

High & Low Weather Summary for the Past Weeks

 TemperatureHumidityPressure
High75 °F (Aug 17, 4:30 PM)100% (Aug 18, 3:30 AM)30.24 "Hg (Aug 18, 3:30 AM)
Low50 °F (Aug 14, 6:30 AM)38% (Aug 17, 3:30 PM)29.71 "Hg (Aug 27, 10:30 AM)
Average61 °F80%30.00 "Hg
* Reported Aug 14 5:30 AM — Aug 29 5:30 AM, Paradise, Weather by CustomWeather, © 2016

Note: Actual official high and low records may vary slightly from our data, if they occured in-between our weather recording intervals... More about our weather records

Advertising

Paradise Weather History for the Previous 24 Hours

Scroll right to see more
 ConditionsComfort  
Time TempWeatherWind HumidityBarometerVisibility
5:30 AM
Mon, Aug 29
50 °FPassing clouds.5 mph76%30.14 "Hg15 mi
4:30 AM52 °FPassing clouds.5 mph77%30.15 "Hg15 mi
3:30 AM52 °FPassing clouds.7 mph82%30.15 "Hg15 mi
2:30 AM52 °FPartly cloudy.5 mph88%30.15 "Hg15 mi
1:30 AM52 °FPartly cloudy.7 mph88%30.16 "Hg15 mi
12:30 AM52 °FPartly cloudy.9 mph88%30.16 "Hg15 mi
11:30 PM
Sun, Aug 28
50 °FPartly cloudy.8 mph88%30.18 "Hg15 mi
10:30 PM50 °FPartly cloudy.7 mph88%30.19 "Hg15 mi
9:30 PM50 °FPassing clouds.3 mph88%30.19 "Hg15 mi
8:30 PM52 °FPassing clouds.3 mph88%30.18 "Hg15 mi
7:30 PM54 °FPartly sunny.5 mph88%30.17 "Hg15 mi
6:30 PM57 °FScattered clouds.12 mph72%30.17 "Hg15 mi
5:30 PM57 °FPartly sunny.15 mph77%30.16 "Hg15 mi
4:30 PM59 °FPartly sunny.15 mph77%30.14 "Hg15 mi
3:30 PM61 °FPartly sunny.12 mph72%30.13 "Hg15 mi
2:30 PM64 °FBroken clouds.17 mph52%30.12 "Hg15 mi
1:30 PM61 °FBroken clouds.24 mph59%30.12 "Hg15 mi
12:30 PM63 °FPartly sunny.22 mph59%30.11 "Hg15 mi
11:30 AM61 °FBroken clouds.16 mph63%30.11 "Hg15 mi
10:30 AM57 °FPartly sunny.22 mph72%30.11 "Hg15 mi
9:30 AM57 °FScattered clouds.14 mph72%30.10 "Hg15 mi
8:30 AM55 °FPassing clouds.23 mph72%30.09 "Hg15 mi
7:30 AM54 °FPassing clouds.16 mph82%30.08 "Hg15 mi
6:30 AM52 °FPassing clouds.15 mph88%30.06 "Hg15 mi
Weather by CustomWeather, © 2016

See weather overviewHow to use our weather pages